contact:dominique.lefevre@mio.osupytheas.fr, maurice.libes@osupytheas.fr, didier.mallarino@osupytheas.fr
Project:EMSO http://www.emso-fr.org/EMSO-France
Depth: 2436.0 m
Title:EMSO Ligure Ouest : Data MII capteur AQUADOPP
Date,Latitude,Longitude,X_East,Y_North,Z_Up,Amplitude_X,Amplitude_Y,Amplitude_Z,Batterie,SoundSpeed,Heading,Pitch,Roll,Pressure,TIS,Speed,Direction
, degrees North, degrees East, m.s-1, m.s-1,m.s-1, 1, 1, 1, Volt, m.s-1, degree, degree, degree, dbar, degree_C, m.s-1, degree
2021-03-09T00:04:03,42.805,6.029,0.031,-0.005,0.005,108.0,108.0,105.0,13.4,1505.2,327.3,-0.7,1.8,2470.274,13.28,0.031,99.2
2021-03-09T00:07:03,42.805,6.029,0.042,-0.025,0.025,107.0,109.0,104.0,13.4,1505.2,326.9,-0.7,1.8,2470.296,13.28,0.048,120.8
2021-03-09T00:10:03,42.805,6.029,0.039,-0.015,0.015,108.0,107.0,105.0,13.4,1505.2,327.5,-0.7,1.8,2470.266,13.28,0.041,111.0
2021-03-09T00:13:03,42.805,6.029,0.041,0.0,0.027,107.0,108.0,105.0,13.4,1505.2,327.6,-0.7,1.8,2470.29,13.28,0.041,90.0
2021-03-09T00:16:03,42.805,6.029,0.068,-0.006,0.033,107.0,108.0,105.0,13.4,1505.2,327.1,-0.7,1.8,2470.263,13.28,0.068,95.0
2021-03-09T00:19:03,42.805,6.029,0.054,-0.02,0.025,107.0,107.0,105.0,13.4,1505.2,327.2,-0.8,1.8,2470.288,13.28,0.057,110.3
2021-03-09T00:22:03,42.805,6.029,0.054,-0.036,0.022,108.0,108.0,105.0,13.4,1505.2,327.6,-0.8,1.8,2470.277,13.28,0.064,123.7
2021-03-09T00:25:03,42.805,6.029,0.035,-0.008,0.009,108.0,109.0,105.0,13.4,1505.2,327.3,-0.8,1.8,2470.274,13.28,0.035,102.9
2021-03-09T00:28:03,42.805,6.029,0.028,-0.036,-0.009,108.0,108.0,105.0,13.3,1505.2,327.2,-0.8,1.8,2470.27,13.28,0.045,142.1
2021-03-09T00:31:03,42.805,6.029,0.057,-0.011,0.015,108.0,107.0,105.0,13.4,1505.2,327.1,-0.7,1.8,2470.284,13.28,0.058,100.9
2021-03-09T00:34:03,42.805,6.029,0.039,-0.013,0.011,110.0,108.0,104.0,13.4,1505.2,327.0,-0.8,1.8,2470.247,13.28,0.041,108.4
2021-03-09T00:37:03,42.805,6.029,0.065,-0.029,0.026,108.0,108.0,105.0,13.4,1505.2,327.5,-0.8,1.8,2470.26,13.28,0.071,114.0
2021-03-09T00:40:03,42.805,6.029,0.04,-0.014,0.005,108.0,109.0,105.0,13.4,1505.2,327.1,-0.7,1.8,2470.288,13.28,0.042,109.3
2021-03-09T00:43:03,42.805,6.029,0.015,-0.025,0.012,109.0,108.0,104.0,13.4,1505.2,327.8,-0.7,1.8,2470.245,13.28,0.029,149.0
2021-03-09T00:46:03,42.805,6.029,0.059,-0.023,0.007,107.0,108.0,107.0,13.4,1505.2,327.0,-0.7,1.8,2470.253,13.28,0.063,111.3
2021-03-09T00:49:03,42.805,6.029,0.032,-0.012,-0.008,108.0,108.0,105.0,13.4,1505.2,327.0,-0.8,1.8,2470.251,13.28,0.034,110.6
2021-03-09T00:52:03,42.805,6.029,0.043,-0.021,0.009,108.0,107.0,105.0,13.4,1505.2,327.5,-0.7,1.8,2470.282,13.28,0.047,116.0
2021-03-09T00:55:03,42.805,6.029,0.012,-0.024,0.004,107.0,107.0,105.0,13.4,1505.2,327.3,-0.7,1.8,2470.27,13.28,0.026,153.4
2021-03-09T00:58:03,42.805,6.029,0.053,-0.026,0.01,107.0,108.0,105.0,13.3,1505.2,326.7,-0.8,1.8,2470.258,13.28,0.059,116.1
2021-03-09T01:04:03,42.805,6.029,0.055,-0.037,0.029,109.0,108.0,105.0,13.4,1505.2,327.6,-0.7,1.8,2470.283,13.28,0.066,123.9
2021-03-09T01:07:03,42.805,6.029,0.042,-0.031,0.017,107.0,109.0,104.0,13.3,1505.2,326.7,-0.8,1.8,2470.317,13.28,0.052,126.4
2021-03-09T01:10:03,42.805,6.029,0.036,-0.025,0.021,108.0,107.0,105.0,13.4,1505.2,326.7,-0.8,1.8,2470.324,13.28,0.043,124.8
2021-03-09T01:13:03,42.805,6.029,0.04,-0.01,0.011,108.0,107.0,104.0,13.4,1505.2,326.8,-0.8,1.8,2470.294,13.28,0.041,104.0
2021-03-09T01:16:03,42.805,6.029,0.047,-0.028,0.043,107.0,108.0,104.0,13.4,1505.2,327.1,-0.8,1.8,2470.317,13.28,0.054,120.8
2021-03-09T01:19:03,42.805,6.029,0.039,-0.018,0.033,109.0,110.0,105.0,13.4,1505.2,326.8,-0.7,1.8,2470.307,13.28,0.042,114.8
2021-03-09T01:22:03,42.805,6.029,0.034,-0.019,0.011,109.0,108.0,105.0,13.4,1505.2,327.2,-0.7,1.8,2470.289,13.28,0.038,119.2
2021-03-09T01:25:03,42.805,6.029,0.044,-0.006,0.026,108.0,109.0,105.0,13.4,1505.2,327.1,-0.7,1.8,2470.318,13.28,0.044,97.8
2021-03-09T01:28:03,42.805,6.029,0.039,-0.019,0.025,108.0,108.0,105.0,13.3,1505.2,327.5,-0.8,1.8,2470.302,13.28,0.043,116.0
2021-03-09T01:31:03,42.805,6.029,0.038,-0.027,0.021,109.0,108.0,104.0,13.3,1505.2,327.3,-0.8,1.8,2470.31,13.28,0.046,125.4
2021-03-09T01:34:03,42.805,6.029,0.062,-0.01,0.014,107.0,108.0,105.0,13.4,1505.2,327.7,-0.7,1.9,2470.32,13.28,0.062,99.2
2021-03-09T01:37:03,42.805,6.029,0.052,-0.039,0.017,108.0,108.0,105.0,13.4,1505.2,327.7,-0.7,1.8,2470.292,13.28,0.064,126.9
2021-03-09T01:40:03,42.805,6.029,0.047,-0.004,0.025,107.0,108.0,105.0,13.4,1505.2,327.4,-0.7,1.8,2470.279,13.28,0.047,94.9
2021-03-09T01:43:03,42.805,6.029,0.063,-0.007,0.024,107.0,107.0,104.0,13.4,1505.2,327.3,-0.7,1.8,2470.333,13.28,0.063,96.3
2021-03-09T01:46:03,42.805,6.029,0.058,-0.03,0.022,109.0,108.0,104.0,13.4,1505.2,327.3,-0.8,1.8,2470.321,13.28,0.065,117.4
2021-03-09T01:49:03,42.805,6.029,0.024,-0.014,-0.008,107.0,109.0,104.0,13.4,1505.2,327.0,-0.8,1.8,2470.351,13.28,0.027,120.3
2021-03-09T01:52:03,42.805,6.029,0.04,-0.038,0.005,108.0,107.0,105.0,13.4,1505.2,327.3,-0.7,1.8,2470.336,13.28,0.055,133.5
2021-03-09T01:55:03,42.805,6.029,0.043,-0.018,0.002,107.0,108.0,105.0,13.3,1505.2,327.2,-0.7,1.8,2470.375,13.28,0.046,112.7
2021-03-09T01:58:03,42.805,6.029,0.037,-0.027,-0.007,110.0,108.0,104.0,13.4,1505.2,327.2,-0.7,1.8,2470.341,13.28,0.045,126.1
2021-03-09T02:04:03,42.805,6.029,0.031,-0.023,0.042,106.0,107.0,105.0,13.4,1505.2,327.4,-0.7,1.8,2470.358,13.28,0.038,126.6
2021-03-09T02:07:03,42.805,6.029,0.03,-0.012,0.019,107.0,107.0,106.0,13.4,1505.2,327.5,-0.7,1.8,2470.331,13.28,0.032,111.8
2021-03-09T02:10:03,42.805,6.029,0.036,-0.02,0.006,109.0,107.0,104.0,13.4,1505.2,327.1,-0.8,1.9,2470.357,13.28,0.041,119.1
2021-03-09T02:13:03,42.805,6.029,0.032,-0.015,0.011,110.0,108.0,105.0,13.4,1505.2,327.2,-0.8,1.8,2470.355,13.28,0.035,115.1
2021-03-09T02:16:03,42.805,6.029,0.047,-0.021,0.035,109.0,107.0,105.0,13.3,1505.2,327.0,-0.7,1.8,2470.347,13.28,0.051,114.1
2021-03-09T02:19:03,42.805,6.029,0.037,-0.028,0.017,108.0,108.0,105.0,13.4,1505.2,326.8,-0.7,1.8,2470.356,13.28,0.046,127.1
2021-03-09T02:22:03,42.805,6.029,0.02,-0.009,0.0,108.0,108.0,105.0,13.4,1505.2,327.6,-0.7,1.8,2470.362,13.28,0.021,114.2
2021-03-09T02:25:03,42.805,6.029,0.045,-0.013,0.002,108.0,107.0,106.0,13.4,1505.2,327.1,-0.7,1.8,2470.361,13.28,0.046,106.1
2021-03-09T02:28:03,42.805,6.029,0.046,-0.012,0.013,108.0,108.0,106.0,13.4,1505.2,327.0,-0.8,1.8,2470.326,13.28,0.047,104.6
2021-03-09T02:31:03,42.805,6.029,0.054,-0.017,0.013,107.0,108.0,106.0,13.4,1505.2,327.1,-0.8,1.8,2470.346,13.28,0.056,107.5
2021-03-09T02:34:03,42.805,6.029,0.032,-0.005,0.019,107.0,108.0,104.0,13.4,1505.2,327.0,-0.7,1.8,2470.35,13.28,0.032,98.9
2021-03-09T02:37:03,42.805,6.029,0.037,-0.034,0.045,108.0,108.0,105.0,13.4,1505.2,326.8,-0.8,1.8,2470.365,13.28,0.05,132.6
2021-03-09T02:40:03,42.805,6.029,0.049,-0.015,0.013,109.0,108.0,104.0,13.3,1505.2,326.8,-0.8,1.8,2470.337,13.28,0.051,107.0
2021-03-09T02:43:03,42.805,6.029,0.035,-0.028,0.026,108.0,109.0,105.0,13.3,1505.2,327.0,-0.8,1.8,2470.348,13.28,0.044,128.7
2021-03-09T02:46:03,42.805,6.029,0.028,-0.019,0.016,108.0,109.0,105.0,13.4,1505.2,327.1,-0.8,1.8,2470.399,13.28,0.033,124.2
2021-03-09T02:49:03,42.805,6.029,0.03,-0.031,0.011,109.0,107.0,106.0,13.4,1505.2,327.2,-0.7,1.8,2470.347,13.28,0.043,135.9
2021-03-09T02:52:03,42.805,6.029,0.028,-0.017,-0.011,109.0,109.0,105.0,13.4,1505.2,327.3,-0.7,1.8,2470.324,13.28,0.032,121.3
2021-03-09T02:55:03,42.805,6.029,0.03,-0.024,-0.003,108.0,109.0,106.0,13.4,1505.2,327.1,-0.7,1.8,2470.399,13.28,0.038,128.7
2021-03-09T02:58:03,42.805,6.029,0.065,-0.008,0.037,108.0,110.0,106.0,13.3,1505.2,326.8,-0.8,1.8,2470.37,13.28,0.065,97.0
2021-03-09T03:04:03,42.805,6.029,0.032,-0.011,0.009,108.0,109.0,105.0,13.4,1505.2,327.2,-0.8,1.8,2470.441,13.28,0.033,109.0
2021-03-09T03:07:03,42.805,6.029,0.024,-0.022,0.027,108.0,110.0,104.0,13.4,1505.2,327.0,-0.7,1.8,2470.401,13.28,0.032,132.5
2021-03-09T03:10:03,42.805,6.029,0.041,-0.014,-0.007,109.0,108.0,104.0,13.3,1505.2,327.1,-0.8,1.8,2470.407,13.28,0.043,108.9
2021-03-09T03:13:03,42.805,6.029,0.044,-0.01,-0.005,107.0,108.0,105.0,13.3,1505.2,326.8,-0.8,1.8,2470.396,13.28,0.045,102.8
2021-03-09T03:16:03,42.805,6.029,0.044,-0.016,0.001,107.0,108.0,105.0,13.3,1505.2,327.0,-0.8,1.8,2470.374,13.28,0.046,110.0
2021-03-09T03:19:03,42.805,6.029,0.043,-0.029,-0.001,108.0,109.0,105.0,13.4,1505.2,327.2,-0.8,1.9,2470.438,13.28,0.051,124.0
2021-03-09T03:22:03,42.805,6.029,0.019,-0.031,0.018,109.0,109.0,105.0,13.4,1505.2,326.8,-0.7,1.8,2470.407,13.28,0.036,148.5
2021-03-09T03:25:03,42.805,6.029,0.042,-0.009,0.009,108.0,107.0,106.0,13.4,1505.2,326.8,-0.8,1.9,2470.387,13.28,0.042,102.1
2021-03-09T03:28:03,42.805,6.029,0.02,-0.002,0.007,109.0,107.0,106.0,13.3,1505.2,327.1,-0.7,1.8,2470.414,13.28,0.02,95.7
2021-03-09T03:31:03,42.805,6.029,0.049,-0.025,-0.01,108.0,109.0,105.0,13.4,1505.2,327.0,-0.8,1.8,2470.419,13.28,0.055,117.0
2021-03-09T03:34:03,42.805,6.029,0.047,-0.018,0.016,108.0,109.0,105.0,13.4,1505.2,327.1,-0.8,1.9,2470.408,13.28,0.05,111.0
2021-03-09T03:37:03,42.805,6.029,0.026,0.006,0.006,108.0,109.0,105.0,13.4,1505.2,327.0,-0.8,1.9,2470.426,13.28,0.026,77.0
2021-03-09T03:40:03,42.805,6.029,0.027,-0.019,0.023,109.0,109.0,105.0,13.3,1505.2,327.5,-0.8,1.8,2470.393,13.28,0.033,125.1
2021-03-09T03:43:03,42.805,6.029,0.045,0.002,0.022,107.0,107.0,104.0,13.4,1505.2,327.3,-0.8,1.8,2470.443,13.28,0.045,87.5
2021-03-09T03:46:03,42.805,6.029,0.04,-0.019,-0.008,108.0,108.0,104.0,13.4,1505.2,327.3,-0.8,1.9,2470.347,13.28,0.044,115.4
2021-03-09T03:49:03,42.805,6.029,0.034,-0.024,-0.002,108.0,107.0,106.0,13.3,1505.2,327.0,-0.8,1.8,2470.376,13.28,0.041,125.2
2021-03-09T03:52:03,42.805,6.029,0.021,-0.011,0.002,109.0,108.0,104.0,13.3,1505.2,327.3,-0.7,1.8,2470.409,13.28,0.023,117.6
2021-03-09T03:55:03,42.805,6.029,0.037,0.001,0.049,109.0,107.0,105.0,13.4,1505.2,326.8,-0.7,1.8,2470.436,13.28,0.037,88.5
2021-03-09T03:58:03,42.805,6.029,0.057,-0.021,0.02,107.0,107.0,105.0,13.4,1505.2,327.5,-0.7,1.8,2470.391,13.28,0.06,110.2
2021-03-09T04:04:03,42.805,6.029,0.051,0.0,0.022,108.0,108.0,105.0,13.4,1505.2,327.4,-0.8,1.9,2470.453,13.28,0.051,90.0
2021-03-09T04:07:03,42.805,6.029,0.022,-0.005,-0.008,108.0,108.0,105.0,13.4,1505.2,327.1,-0.8,1.8,2470.43,13.28,0.022,102.8
2021-03-09T04:10:03,42.805,6.029,0.036,-0.017,0.011,107.0,108.0,105.0,13.4,1505.2,327.3,-0.8,1.8,2470.4,13.28,0.039,115.3
2021-03-09T04:13:03,42.805,6.029,0.049,-0.003,0.017,107.0,109.0,105.0,13.3,1505.2,327.0,-0.8,1.8,2470.44,13.28,0.049,93.5
2021-03-09T04:16:03,42.805,6.029,0.04,-0.021,0.033,109.0,109.0,105.0,13.3,1505.2,327.5,-0.7,1.8,2470.456,13.28,0.045,117.7
2021-03-09T04:19:03,42.805,6.029,0.043,-0.002,0.003,108.0,108.0,105.0,13.3,1505.2,327.6,-0.7,1.8,2470.414,13.28,0.043,92.7
2021-03-09T04:22:03,42.805,6.029,0.035,-0.011,0.02,108.0,107.0,105.0,13.3,1505.2,327.0,-0.8,1.8,2470.401,13.28,0.036,107.4
2021-03-09T04:25:03,42.805,6.029,0.044,-0.001,0.013,108.0,109.0,105.0,13.4,1505.2,327.5,-0.7,1.8,2470.402,13.28,0.044,91.3
2021-03-09T04:28:03,42.805,6.029,0.038,-0.011,0.003,107.0,109.0,104.0,13.3,1505.2,327.8,-0.8,1.8,2470.433,13.28,0.039,106.1
2021-03-09T04:31:03,42.805,6.029,0.043,0.004,0.004,107.0,109.0,104.0,13.3,1505.2,327.2,-0.7,1.8,2470.429,13.28,0.043,84.7
2021-03-09T04:34:03,42.805,6.029,0.04,-0.013,0.007,108.0,109.0,105.0,13.3,1505.2,327.0,-0.8,1.8,2470.447,13.28,0.042,108.0
2021-03-09T04:37:03,42.805,6.029,0.036,-0.003,0.007,109.0,108.0,106.0,13.3,1505.2,327.2,-0.7,1.8,2470.436,13.28,0.036,94.8
2021-03-09T04:40:03,42.805,6.029,0.032,-0.001,0.024,108.0,109.0,104.0,13.3,1505.2,327.7,-0.7,1.8,2470.416,13.28,0.032,91.8
2021-03-09T04:43:03,42.805,6.029,0.038,-0.02,0.01,109.0,109.0,105.0,13.4,1505.2,327.1,-0.7,1.8,2470.448,13.28,0.042,117.8
2021-03-09T04:46:03,42.805,6.029,0.036,-0.029,0.005,108.0,109.0,105.0,13.3,1505.2,327.6,-0.7,1.8,2470.431,13.28,0.046,128.9
2021-03-09T04:49:03,42.805,6.029,0.044,-0.009,0.01,107.0,107.0,105.0,13.3,1505.2,327.6,-0.7,1.8,2470.438,13.28,0.044,101.6
2021-03-09T04:52:03,42.805,6.029,0.016,0.001,0.02,107.0,109.0,105.0,13.4,1505.2,327.3,-0.7,1.8,2470.422,13.28,0.016,86.4
2021-03-09T04:55:03,42.805,6.029,0.023,-0.008,0.002,108.0,108.0,104.0,13.3,1505.2,326.7,-0.8,1.8,2470.456,13.28,0.024,109.2
2021-03-09T04:58:03,42.805,6.029,0.046,-0.005,0.002,109.0,108.0,105.0,13.4,1505.2,326.8,-0.8,1.8,2470.448,13.28,0.046,96.2
2021-03-09T05:04:03,42.805,6.029,0.042,-0.015,-0.001,107.0,108.0,105.0,13.4,1505.2,327.0,-0.7,1.8,2470.447,13.28,0.044,109.6
2021-03-09T05:07:03,42.805,6.029,0.042,-0.012,0.03,108.0,108.0,105.0,13.4,1505.2,327.1,-0.8,1.8,2470.452,13.28,0.043,105.9
2021-03-09T05:10:03,42.805,6.029,0.037,-0.007,0.015,108.0,109.0,104.0,13.3,1505.2,327.5,-0.8,1.9,2470.453,13.28,0.037,100.7
2021-03-09T05:13:03,42.805,6.029,0.041,-0.016,0.005,108.0,108.0,104.0,13.4,1505.2,327.5,-0.7,1.8,2470.455,13.28,0.044,111.3
2021-03-09T05:16:03,42.805,6.029,0.049,-0.026,0.005,107.0,109.0,105.0,13.3,1505.2,327.2,-0.7,1.8,2470.49,13.28,0.055,117.9
2021-03-09T05:19:03,42.805,6.029,0.039,0.003,0.001,107.0,109.0,104.0,13.3,1505.2,327.7,-0.7,1.8,2470.501,13.28,0.039,85.6
2021-03-09T05:22:03,42.805,6.029,0.062,0.009,0.025,107.0,109.0,105.0,13.3,1505.2,327.5,-0.7,1.8,2470.481,13.28,0.062,81.7
2021-03-09T05:25:03,42.805,6.029,0.041,-0.01,-0.01,108.0,108.0,105.0,13.3,1505.2,327.2,-0.7,1.8,2470.43,13.28,0.042,103.7
2021-03-09T05:28:03,42.805,6.029,0.034,-0.006,0.035,108.0,107.0,104.0,13.3,1505.2,327.2,-0.8,1.8,2470.446,13.28,0.034,100.0
2021-03-09T05:31:03,42.805,6.029,0.046,0.002,0.027,107.0,108.0,104.0,13.4,1505.2,327.4,-0.8,1.8,2470.481,13.28,0.046,87.5
2021-03-09T05:34:03,42.805,6.029,0.046,-0.002,-0.007,108.0,108.0,105.0,13.4,1505.2,326.8,-0.7,1.8,2470.449,13.28,0.046,92.5
2021-03-09T05:37:03,42.805,6.029,0.03,-0.007,-0.004,107.0,108.0,105.0,13.4,1505.2,326.8,-0.8,1.8,2470.439,13.28,0.03,103.1
2021-03-09T05:40:03,42.805,6.029,0.038,-0.003,0.029,108.0,109.0,105.0,13.3,1505.2,327.1,-0.8,1.8,2470.449,13.28,0.038,94.5
2021-03-09T05:43:03,42.805,6.029,0.024,-0.013,0.032,107.0,108.0,104.0,13.4,1505.2,327.5,-0.8,1.9,2470.453,13.28,0.027,118.4
2021-03-09T05:46:03,42.805,6.029,0.033,0.003,0.004,109.0,110.0,105.0,13.4,1505.2,327.4,-0.7,1.8,2470.449,13.28,0.033,84.8
2021-03-09T05:49:03,42.805,6.029,0.065,-0.015,0.003,108.0,109.0,106.0,13.4,1505.2,327.1,-0.7,1.8,2470.443,13.28,0.066,103.0
2021-03-09T05:52:03,42.805,6.029,0.043,-0.015,0.043,108.0,111.0,104.0,13.3,1505.2,326.8,-0.7,1.8,2470.459,13.28,0.045,109.2
2021-03-09T05:55:03,42.805,6.029,0.045,-0.02,-0.02,108.0,108.0,105.0,13.3,1505.2,327.3,-0.8,1.9,2470.42,13.28,0.049,114.0
2021-03-09T05:58:03,42.805,6.029,0.051,0.0,0.014,108.0,108.0,104.0,13.4,1505.2,327.1,-0.8,1.8,2470.435,13.28,0.051,90.0
2021-03-09T06:04:03,42.805,6.029,0.058,-0.017,0.026,108.0,109.0,104.0,13.3,1505.2,327.4,-0.8,1.8,2470.441,13.28,0.06,106.3
2021-03-09T06:07:03,42.805,6.029,0.056,-0.004,0.008,108.0,111.0,104.0,13.4,1505.2,326.8,-0.8,1.8,2470.52,13.28,0.056,94.1
2021-03-09T06:10:03,42.805,6.029,0.045,-0.005,0.016,109.0,110.0,105.0,13.4,1505.2,326.7,-0.7,1.8,2470.464,13.28,0.045,96.3
2021-03-09T06:13:03,42.805,6.029,0.05,-0.005,0.007,108.0,109.0,105.0,13.4,1505.2,327.1,-0.8,1.8,2470.452,13.28,0.05,95.7
2021-03-09T06:16:03,42.805,6.029,0.021,-0.014,0.017,109.0,110.0,105.0,13.4,1505.2,327.3,-0.8,1.8,2470.431,13.28,0.025,123.7
2021-03-09T06:19:03,42.805,6.029,0.035,-0.02,0.02,107.0,109.0,104.0,13.4,1505.2,327.5,-0.8,1.8,2470.389,13.28,0.04,119.7
2021-03-09T06:22:03,42.805,6.029,0.059,-0.007,0.01,108.0,109.0,106.0,13.4,1505.2,327.0,-0.8,1.8,2470.393,13.28,0.059,96.8
2021-03-09T06:25:03,42.805,6.029,0.038,-0.007,0.018,108.0,108.0,105.0,13.4,1505.2,327.3,-0.7,1.8,2470.441,13.28,0.038,100.4
2021-03-09T06:28:03,42.805,6.029,0.08,-0.032,0.007,108.0,109.0,105.0,13.4,1505.2,327.1,-0.7,1.8,2470.457,13.28,0.086,111.8
2021-03-09T06:31:03,42.805,6.029,0.062,-0.019,-0.016,109.0,111.0,105.0,13.4,1505.2,327.6,-0.8,1.8,2470.461,13.28,0.064,107.0
2021-03-09T06:34:03,42.805,6.029,0.049,-0.008,0.016,107.0,108.0,105.0,13.4,1505.2,326.9,-0.7,1.8,2470.436,13.28,0.049,99.3
2021-03-09T06:37:03,42.805,6.029,0.043,-0.02,0.03,108.0,109.0,104.0,13.4,1505.2,327.1,-0.7,1.9,2470.441,13.28,0.047,114.9
2021-03-09T06:40:03,42.805,6.029,0.044,-0.013,0.025,108.0,109.0,105.0,13.4,1505.2,327.1,-0.7,1.8,2470.455,13.28,0.045,106.5
2021-03-09T06:43:03,42.805,6.029,0.059,-0.041,0.018,107.0,108.0,105.0,13.4,1505.2,327.0,-0.7,1.8,2470.397,13.28,0.071,124.8
2021-03-09T06:46:03,42.805,6.029,0.049,-0.005,-0.02,108.0,109.0,104.0,13.3,1505.2,327.0,-0.8,1.8,2470.457,13.28,0.049,95.8
2021-03-09T06:49:03,42.805,6.029,0.057,-0.028,-0.012,108.0,109.0,104.0,13.3,1505.2,327.5,-0.7,1.9,2470.416,13.28,0.063,116.2
2021-03-09T06:52:03,42.805,6.029,0.05,-0.01,0.006,109.0,110.0,104.0,13.3,1505.2,327.2,-0.7,1.8,2470.468,13.28,0.05,101.3
2021-03-09T06:55:03,42.805,6.029,0.045,-0.02,-0.012,109.0,108.0,106.0,13.4,1505.2,327.2,-0.7,1.8,2470.417,13.28,0.049,114.0
2021-03-09T06:58:03,42.805,6.029,0.042,-0.016,-0.002,107.0,109.0,104.0,13.4,1505.2,327.2,-0.7,1.8,2470.421,13.28,0.044,110.9
2021-03-09T07:04:03,42.805,6.029,0.04,-0.014,-0.015,109.0,109.0,106.0,13.3,1505.2,327.1,-0.7,1.8,2470.449,13.28,0.042,109.3
2021-03-09T07:07:03,42.805,6.029,0.048,-0.018,0.022,108.0,108.0,105.0,13.3,1505.2,327.5,-0.7,1.8,2470.45,13.28,0.051,110.6
2021-03-09T07:10:03,42.805,6.029,0.057,-0.015,0.055,108.0,108.0,105.0,13.4,1505.2,327.1,-0.8,1.8,2470.446,13.28,0.058,104.7
2021-03-09T07:13:03,42.805,6.029,0.031,-0.042,0.008,109.0,108.0,105.0,13.4,1505.2,327.1,-0.8,1.8,2470.424,13.28,0.052,143.6
2021-03-09T07:16:03,42.805,6.029,0.048,-0.016,0.019,108.0,109.0,105.0,13.3,1505.2,327.2,-0.8,1.8,2470.442,13.28,0.05,108.4
2021-03-09T07:19:03,42.805,6.029,0.055,-0.011,0.011,107.0,108.0,105.0,13.4,1505.2,327.3,-0.8,1.8,2470.402,13.28,0.056,101.3
2021-03-09T07:22:03,42.805,6.029,0.064,-0.008,0.012,108.0,109.0,105.0,13.4,1505.2,327.2,-0.7,1.9,2470.462,13.28,0.064,97.1
2021-03-09T07:25:03,42.805,6.029,0.053,-0.003,0.016,108.0,108.0,104.0,13.4,1505.2,327.0,-0.7,1.8,2470.391,13.28,0.053,93.2
2021-03-09T07:28:03,42.805,6.029,0.054,-0.011,0.029,107.0,108.0,105.0,13.3,1505.2,327.7,-0.8,1.8,2470.402,13.28,0.055,101.5
2021-03-09T07:31:03,42.805,6.029,0.055,0.0,0.027,108.0,110.0,105.0,13.4,1505.2,327.3,-0.8,1.8,2470.432,13.28,0.055,90.0
2021-03-09T07:34:03,42.805,6.029,0.041,-0.023,0.025,107.0,108.0,105.0,13.3,1505.2,327.1,-0.7,1.8,2470.401,13.28,0.047,119.3
2021-03-09T07:37:03,42.805,6.029,0.055,-0.016,0.019,108.0,109.0,104.0,13.4,1505.2,326.7,-0.8,1.8,2470.457,13.28,0.057,106.2
2021-03-09T07:40:03,42.805,6.029,0.066,-0.011,0.034,107.0,109.0,104.0,13.3,1505.2,327.1,-0.7,1.8,2470.403,13.28,0.066,99.5
2021-03-09T07:43:03,42.805,6.029,0.06,-0.028,0.017,107.0,108.0,105.0,13.3,1505.2,326.8,-0.8,1.8,2470.424,13.28,0.066,115.0
2021-03-09T07:46:03,42.805,6.029,0.057,-0.017,0.016,109.0,109.0,105.0,13.4,1505.2,326.8,-0.7,1.8,2470.38,13.28,0.059,106.6
2021-03-09T07:49:03,42.805,6.029,0.065,-0.039,0.023,108.0,108.0,104.0,13.3,1505.2,327.0,-0.7,1.8,2470.41,13.28,0.075,121.0
2021-03-09T07:52:03,42.805,6.029,0.061,-0.013,0.039,108.0,109.0,105.0,13.4,1505.2,327.4,-0.7,1.8,2470.447,13.28,0.062,102.0
2021-03-09T07:55:03,42.805,6.029,0.052,-0.02,-0.006,107.0,108.0,105.0,13.4,1505.2,327.4,-0.7,1.8,2470.439,13.28,0.055,111.0
2021-03-09T07:58:03,42.805,6.029,0.044,-0.018,0.035,107.0,107.0,104.0,13.4,1505.2,327.4,-0.8,1.8,2470.422,13.28,0.047,112.2
2021-03-09T08:04:03,42.805,6.029,0.053,-0.032,0.005,108.0,108.0,106.0,13.3,1505.2,326.7,-0.8,1.8,2470.417,13.28,0.061,121.1
2021-03-09T08:07:03,42.805,6.029,0.051,-0.017,0.029,106.0,107.0,104.0,13.3,1505.2,326.7,-0.8,1.8,2470.394,13.28,0.053,108.4
2021-03-09T08:10:03,42.805,6.029,0.073,-0.019,-0.003,108.0,108.0,105.0,13.3,1505.2,327.2,-0.7,1.9,2470.412,13.28,0.075,104.6
2021-03-09T08:13:03,42.805,6.029,0.074,-0.037,0.042,107.0,107.0,105.0,13.3,1505.2,327.0,-0.8,1.8,2470.399,13.28,0.082,116.6
2021-03-09T08:16:03,42.805,6.029,0.053,-0.033,0.005,107.0,108.0,105.0,13.4,1505.2,327.3,-0.8,1.8,2470.412,13.28,0.062,121.9
2021-03-09T08:19:03,42.805,6.029,0.059,-0.019,0.019,108.0,109.0,105.0,13.3,1505.2,327.3,-0.8,1.8,2470.408,13.28,0.061,107.8
2021-03-09T08:22:03,42.805,6.029,0.059,-0.016,0.033,108.0,107.0,104.0,13.4,1505.2,327.3,-0.8,1.8,2470.357,13.28,0.061,105.2
2021-03-09T08:25:03,42.805,6.029,0.035,-0.021,0.033,109.0,109.0,104.0,13.3,1505.2,327.0,-0.7,1.8,2470.409,13.28,0.04,121.0
2021-03-09T08:28:03,42.805,6.029,0.047,-0.009,0.008,107.0,109.0,105.0,13.4,1505.2,327.4,-0.8,1.9,2470.361,13.28,0.047,100.8
2021-03-09T08:31:03,42.805,6.029,0.016,-0.029,0.005,109.0,109.0,104.0,13.4,1505.2,327.1,-0.8,1.8,2470.41,13.28,0.033,151.1
2021-03-09T08:34:03,42.805,6.029,0.047,-0.019,-0.011,107.0,109.0,105.0,13.4,1505.2,326.9,-0.7,1.8,2470.36,13.28,0.05,112.0
2021-03-09T08:37:03,42.805,6.029,0.052,-0.014,0.013,108.0,108.0,105.0,13.4,1505.2,326.8,-0.7,1.8,2470.405,13.28,0.053,105.1
2021-03-09T08:40:03,42.805,6.029,0.055,-0.01,0.04,107.0,109.0,104.0,13.4,1505.2,327.2,-0.7,1.8,2470.38,13.28,0.055,100.3
2021-03-09T08:43:03,42.805,6.029,0.059,-0.004,0.036,107.0,108.0,105.0,13.4,1505.2,327.5,-0.8,1.8,2470.37,13.28,0.059,93.9
2021-03-09T08:46:03,42.805,6.029,0.069,-0.03,0.005,107.0,108.0,104.0,13.4,1505.2,326.7,-0.7,1.8,2470.364,13.28,0.075,113.5
2021-03-09T08:49:03,42.805,6.029,0.034,-0.014,0.005,108.0,109.0,105.0,13.3,1505.2,327.3,-0.7,1.8,2470.39,13.28,0.036,112.4
2021-03-09T08:52:03,42.805,6.029,0.073,-0.012,0.046,109.0,110.0,105.0,13.3,1505.2,327.6,-0.7,1.8,2470.386,13.28,0.073,99.3
2021-03-09T08:55:03,42.805,6.029,0.068,-0.026,0.015,108.0,107.0,104.0,13.3,1505.2,327.3,-0.7,1.8,2470.36,13.28,0.072,110.9
2021-03-09T08:58:03,42.805,6.029,0.079,-0.021,0.026,108.0,109.0,105.0,13.4,1505.2,327.3,-0.7,1.8,2470.382,13.28,0.081,104.9
2021-03-09T09:04:03,42.805,6.029,0.064,-0.038,0.037,108.0,109.0,104.0,13.4,1505.2,327.2,-0.8,1.8,2470.389,13.28,0.074,120.7
2021-03-09T09:07:03,42.805,6.029,0.052,-0.012,0.041,107.0,107.0,105.0,13.3,1505.2,326.7,-0.8,1.8,2470.396,13.28,0.053,103.0
2021-03-09T09:10:03,42.805,6.029,0.065,-0.022,0.029,108.0,107.0,104.0,13.4,1505.2,327.6,-0.8,1.8,2470.335,13.28,0.068,108.7
2021-03-09T09:13:03,42.805,6.029,0.034,-0.021,0.0,107.0,109.0,104.0,13.3,1505.2,327.0,-0.7,1.8,2470.348,13.28,0.039,121.7
2021-03-09T09:16:03,42.805,6.029,0.051,-0.017,0.023,107.0,107.0,105.0,13.4,1505.2,327.4,-0.8,1.8,2470.377,13.28,0.053,108.4
2021-03-09T09:19:03,42.805,6.029,0.046,-0.009,0.005,109.0,108.0,105.0,13.4,1505.2,327.2,-0.8,1.8,2470.367,13.28,0.046,101.1
2021-03-09T09:22:03,42.805,6.029,0.067,-0.017,0.031,107.0,108.0,104.0,13.4,1505.2,327.2,-0.8,1.8,2470.38,13.28,0.069,104.2
2021-03-09T09:25:03,42.805,6.029,0.045,-0.028,0.034,107.0,107.0,105.0,13.4,1505.2,327.5,-0.7,1.8,2470.381,13.28,0.053,121.9
2021-03-09T09:28:03,42.805,6.029,0.051,-0.018,0.017,106.0,107.0,104.0,13.4,1505.2,327.1,-0.8,1.8,2470.346,13.28,0.054,109.4
2021-03-09T09:31:03,42.805,6.029,0.051,-0.02,0.012,106.0,106.0,105.0,13.3,1505.2,327.1,-0.7,1.8,2470.419,13.28,0.054,111.4
2021-03-09T09:34:03,42.805,6.029,0.062,-0.028,0.009,107.0,108.0,105.0,13.4,1505.2,327.4,-0.8,1.8,2470.401,13.28,0.068,114.3
2021-03-09T09:37:03,42.805,6.029,0.056,-0.018,0.009,109.0,106.0,103.0,13.4,1505.2,327.0,-0.8,1.8,2470.344,13.28,0.058,107.8
2021-03-09T09:40:03,42.805,6.029,0.057,-0.003,-0.027,107.0,108.0,105.0,13.3,1505.2,327.3,-0.8,1.8,2470.375,13.28,0.057,93.0
2021-03-09T09:43:03,42.805,6.029,0.039,-0.024,0.001,108.0,108.0,104.0,13.4,1505.2,327.1,-0.7,1.8,2470.365,13.28,0.045,121.6
2021-03-09T09:46:03,42.805,6.029,0.045,-0.017,0.018,108.0,109.0,104.0,13.4,1505.2,326.7,-0.7,1.8,2470.366,13.28,0.048,110.7
2021-03-09T09:49:03,42.805,6.029,0.046,-0.008,0.023,108.0,107.0,105.0,13.3,1505.2,327.1,-0.8,1.8,2470.378,13.28,0.046,99.9
2021-03-09T09:52:03,42.805,6.029,0.054,-0.027,0.013,108.0,107.0,104.0,13.4,1505.2,327.3,-0.8,1.8,2470.329,13.28,0.06,116.6
2021-03-09T09:55:03,42.805,6.029,0.055,-0.037,0.014,108.0,108.0,103.0,13.3,1505.2,326.8,-0.8,1.8,2470.319,13.28,0.066,123.9
2021-03-09T09:58:03,42.805,6.029,0.055,-0.029,-0.017,109.0,108.0,104.0,13.4,1505.2,327.5,-0.7,1.8,2470.359,13.28,0.062,117.8